When you browse on this site, cookies collect data to enhance your experience and personalize the content and advertising you see.
Visit our Privacy Policy to learn more. By continuing to use the site, you agree to this use of cookies and data.
  • In Romania
  • List of Countries
  • For 7 days
  • Water Temperature
  • Satellite Maps
  • Weather Map
  • Weather Widgets
  • user-avatar
    Login

    Hourly Weather Aleksandrów Łódzki

    Today, 10 December, Monday

    Time Temperature Precipitation Wind Pressure Humidity
    00:00 +3°C° 0.3 mm 6 mps 731 mmHg 83%
    01:00 +3°C° 0.3 mm 6 mps 731 mmHg 83%
    02:00 +3°C° 0.5 mm 7 mps 731 mmHg 82%
    03:00 +3°C° 0.5 mm 7 mps 731 mmHg 81%
    04:00 +3°C° 0.5 mm 7 mps 731 mmHg 80%
    05:00 +3°C° 0.3 mm 7 mps 732 mmHg 78%
    06:00 +2°C° 0.3 mm 8 mps 732 mmHg 76%
    07:00 +1°C° 0.3 mm 8 mps 733 mmHg 74%
    08:00 +1°C° 0 mm 8 mps 734 mmHg 73%
    09:00 +1°C° 0 mm 8 mps 734 mmHg 72%
    10:00 +1°C° 0 mm 8 mps 735 mmHg 71%
    11:00 +1°C° 0.1 mm 8 mps 735 mmHg 69%
    12:00 +1°C° 0.1 mm 8 mps 736 mmHg 68%
    13:00 +1°C° 0.1 mm 8 mps 736 mmHg 66%
    14:00 +2°C° 0.1 mm 7 mps 736 mmHg 68%
    15:00 +2°C° 0.1 mm 6 mps 737 mmHg 69%
    16:00 +1°C° 0.1 mm 6 mps 737 mmHg 70%
    17:00 +1°C° 0 mm 5 mps 737 mmHg 72%
    18:00 0°C° 0 mm 5 mps 737 mmHg 73%
    19:00 0°C° 0 mm 5 mps 737 mmHg 75%
    20:00 0°C° 0 mm 5 mps 737 mmHg 76%
    21:00 -1°C° 0 mm 5 mps 738 mmHg 78%
    22:00 -1°C° 0 mm 5 mps 738 mmHg 79%
    23:00 -1°C° 0 mm 5 mps 738 mmHg 81%

    Tomorrow, 11 December, Tuesday

    Time Temperature Precipitation Wind Pressure Humidity
    00:00 -1°C° 0 mm 5 mps 738 mmHg 83%
    01:00 -1°C° 0 mm 5 mps 738 mmHg 85%
    02:00 -1°C° 0 mm 4 mps 738 mmHg 86%
    03:00 -1°C° 0 mm 4 mps 737 mmHg 87%
    04:00 -1°C° 0 mm 4 mps 737 mmHg 88%
    05:00 -1°C° 0.1 mm 4 mps 737 mmHg 88%
    06:00 -1°C° 0.1 mm 4 mps 737 mmHg 88%
    07:00 -1°C° 0.1 mm 4 mps 737 mmHg 88%
    08:00 -1°C° 0.3 mm 4 mps 737 mmHg 88%
    09:00 0°C° 0.3 mm 4 mps 738 mmHg 88%
    10:00 0°C° 0.3 mm 4 mps 738 mmHg 88%
    11:00 +1°C° 0.1 mm 3 mps 738 mmHg 88%
    12:00 +1°C° 0.1 mm 3 mps 738 mmHg 88%
    13:00 +2°C° 0.1 mm 2 mps 738 mmHg 88%
    14:00 +2°C° 0.1 mm 2 mps 738 mmHg 89%
    15:00 +2°C° 0.1 mm 2 mps 739 mmHg 91%
    16:00 +3°C° 0.1 mm 1 mps 739 mmHg 92%
    17:00 +3°C° 0.2 mm 1 mps 740 mmHg 93%
    18:00 +3°C° 0.2 mm 1 mps 740 mmHg 94%
    19:00 +1°C° 0.2 mm 2 mps 740 mmHg 94%
    20:00 +1°C° 0.1 mm 2 mps 741 mmHg 94%
    21:00 +1°C° 0.1 mm 2 mps 741 mmHg 94%
    22:00 +1°C° 0.1 mm 2 mps 742 mmHg 94%
    23:00 +1°C° 0.1 mm 2 mps 742 mmHg 94%

    Day after tomorrow, 12 December, Wednesday

    Time Temperature Precipitation Wind Pressure Humidity
    00:00 +1°C° 0.1 mm 2 mps 742 mmHg 94%
    01:00 -1°C° 0.1 mm 2 mps 743 mmHg 94%
    02:00 -1°C° 0.1 mm 3 mps 743 mmHg 94%
    03:00 -1°C° 0.1 mm 3 mps 743 mmHg 93%
    04:00 -1°C° 0.1 mm 3 mps 744 mmHg 93%
    05:00 -2°C° 0 mm 3 mps 744 mmHg 93%
    06:00 -2°C° 0 mm 2 mps 744 mmHg 94%
    07:00 -2°C° 0 mm 2 mps 745 mmHg 94%
    08:00 -2°C° 0 mm 2 mps 745 mmHg 92%
    09:00 -2°C° 0 mm 2 mps 746 mmHg 90%
    10:00 -1°C° 0 mm 2 mps 746 mmHg 89%
    11:00 -1°C° 0 mm 2 mps 746 mmHg 87%
    12:00 -1°C° 0 mm 2 mps 746 mmHg 85%
    13:00 +1°C° 0 mm 2 mps 746 mmHg 84%
    14:00 -1°C° 0 mm 2 mps 746 mmHg 86%
    15:00 -1°C° 0 mm 2 mps 747 mmHg 89%
    16:00 -2°C° 0 mm 2 mps 747 mmHg 91%
    17:00 0°C° 0 mm 1 mps 747 mmHg 92%
    18:00 0°C° 0 mm 1 mps 747 mmHg 92%
    19:00 -1°C° 0 mm 1 mps 747 mmHg 93%
    20:00 -1°C° 0 mm 1 mps 747 mmHg 93%
    21:00 -1°C° 0 mm 1 mps 748 mmHg 93%
    22:00 -1°C° 0 mm 1 mps 748 mmHg 93%
    23:00 -1°C° 0 mm 1 mps 748 mmHg 93%

    13 December, Thursday

    Time Temperature Precipitation Wind Pressure Humidity
    00:00 0°C° 0 mm 1 mps 748 mmHg 93%
    01:00 0°C° 0 mm 1 mps 748 mmHg 93%
    02:00 0°C° 0 mm 1 mps 748 mmHg 93%
    03:00 0°C° 0 mm 1 mps 748 mmHg 93%
    04:00 -2°C° 0 mm 2 mps 748 mmHg 93%
    05:00 0°C° 0 mm 1 mps 748 mmHg 94%
    06:00 0°C° 0 mm 1 mps 748 mmHg 94%
    07:00 0°C° 0 mm 1 mps 748 mmHg 94%
    08:00 0°C° 0 mm 1 mps 748 mmHg 92%
    09:00 -2°C° 0 mm 2 mps 748 mmHg 91%
    10:00 -1°C° 0 mm 2 mps 748 mmHg 89%
    11:00 -1°C° 0 mm 2 mps 747 mmHg 88%
    12:00 -1°C° 0 mm 2 mps 747 mmHg 87%
    13:00 -1°C° 0 mm 2 mps 747 mmHg 85%
    14:00 -1°C° 0 mm 2 mps 747 mmHg 86%
    15:00 +1°C° 0 mm 1 mps 747 mmHg 88%
    16:00 +1°C° 0 mm 1 mps 747 mmHg 89%
    17:00 +1°C° 0 mm 1 mps 747 mmHg 89%
    18:00 0°C° 0 mm 1 mps 746 mmHg 90%
    19:00 0°C° 0 mm 1 mps 746 mmHg 91%
    20:00 0°C° 0 mm 1 mps 746 mmHg 91%
    21:00 0°C° 0 mm 1 mps 747 mmHg 91%
    22:00 0°C° 0 mm 1 mps 747 mmHg 91%
    23:00 0°C° 0 mm 1 mps 747 mmHg 91%

    14 December, Friday

    Time Temperature Precipitation Wind Pressure Humidity
    00:00 0°C° 0 mm 1 mps 747 mmHg 90%
    01:00 0°C° 0 mm 1 mps 747 mmHg 90%
    02:00 -1°C° 0 mm 1 mps 746 mmHg 90%
    03:00 -1°C° 0 mm 1 mps 746 mmHg 90%
    04:00 -3°C° 0 mm 2 mps 746 mmHg 90%
    05:00 -3°C° 0 mm 2 mps 746 mmHg 90%
    06:00 -3°C° 0 mm 2 mps 747 mmHg 89%
    07:00 -3°C° 0 mm 2 mps 747 mmHg 89%
    08:00 -3°C° 0 mm 2 mps 747 mmHg 88%
    09:00 -2°C° 0 mm 2 mps 747 mmHg 86%
    10:00 -2°C° 0 mm 2 mps 747 mmHg 85%
    11:00 -2°C° 0 mm 2 mps 747 mmHg 84%
    12:00 -1°C° 0 mm 2 mps 747 mmHg 83%
    13:00 -1°C° 0 mm 2 mps 747 mmHg 81%
    14:00 -1°C° 0 mm 2 mps 747 mmHg 84%
    15:00 -2°C° 0 mm 2 mps 747 mmHg 86%
    16:00 -2°C° 0 mm 2 mps 747 mmHg 89%
    17:00 -2°C° 0.1 mm 2 mps 748 mmHg 89%
    18:00 -2°C° 0.1 mm 2 mps 748 mmHg 89%
    19:00 -2°C° 0.1 mm 2 mps 748 mmHg 89%
    20:00 -2°C° 0 mm 3 mps 748 mmHg 89%
    21:00 -2°C° 0 mm 3 mps 748 mmHg 89%
    22:00 -2°C° 0 mm 3 mps 748 mmHg 89%
    23:00 -2°C° 0 mm 3 mps 748 mmHg 90%

    15 December, Saturday

    Time Temperature Precipitation Wind Pressure Humidity
    00:00 -4°C° 0 mm 3 mps 748 mmHg 90%
    01:00 -3°C° 0 mm 2 mps 748 mmHg 90%
    02:00 -4°C° 0 mm 3 mps 748 mmHg 89%
    03:00 -4°C° 0 mm 3 mps 748 mmHg 89%
    04:00 -4°C° 0 mm 3 mps 748 mmHg 88%
    05:00 -4°C° 0 mm 3 mps 748 mmHg 89%
    06:00 -4°C° 0 mm 3 mps 748 mmHg 89%
    07:00 -4°C° 0 mm 3 mps 748 mmHg 90%
    08:00 -4°C° 0 mm 3 mps 749 mmHg 88%
    09:00 -2°C° 0 mm 3 mps 749 mmHg 86%
    10:00 -2°C° 0 mm 3 mps 750 mmHg 84%
    11:00 -2°C° 0 mm 3 mps 749 mmHg 83%
    12:00 -2°C° 0 mm 3 mps 749 mmHg 82%
    13:00 -1°C° 0 mm 3 mps 749 mmHg 81%
    14:00 -2°C° 0.1 mm 3 mps 749 mmHg 83%
    15:00 -2°C° 0.1 mm 3 mps 749 mmHg 85%
    16:00 -2°C° 0.1 mm 2 mps 750 mmHg 87%
    17:00 -2°C° 0 mm 2 mps 750 mmHg 88%
    18:00 -4°C° 0 mm 3 mps 750 mmHg 89%
    19:00 -4°C° 0 mm 3 mps 750 mmHg 91%
    20:00 -4°C° 0 mm 3 mps 750 mmHg 91%
    21:00 -3°C° 0 mm 2 mps 750 mmHg 92%
    22:00 -3°C° 0 mm 2 mps 750 mmHg 92%
    23:00 -3°C° 0 mm 2 mps 749 mmHg 93%
    Show more